Location: Kra?nica
(53.4833°N, 14.6167°E)
Time: 06:46:49
(UTC+00:00)

Cosmos 1408 - Pass Details

Date: 23 May 2024
Orbit: 363 x 377 km, 82.6° (Epoch: 15 June)

Event Time Altitude Azimuth Distance (km) Brightness Sun altitude
Exits shadow 01:23:15 12° 184° (S) 1,272 4.2 -9.5°
Maximum altitude 01:25:58 74° 100° (E) 386 2.1 -9.3°
Drops below altitude 10° 01:28:55 10° 14° (NNE) 1,369 6.1 -9.1°
Sets 01:30:54 0° 13° (NNE) 2,223 7.3 -8.9°
